Date,TemperatureHighF,TemperatureAvgF,TemperatureLowF,DewpointHighF,DewpointAvgF,DewpointLowF,HumidityHigh,HumidityAvg,HumidityLow,PressureMaxIn,PressureMinIn,WindSpeedMaxMPH,WindSpeedAvgMPH,GustSpeedMaxMPH,PrecipitationSumIn
2014-1-1,14,12,11,9,5,0,81,73,55,30.16,30.01,10,3,11,0.00
2014-1-2,17,11,-2,5,-1,-18,68,57,45,30.13,29.96,15,4,17,0.00
2014-1-3,20,8,-4,3,-8,-20,56,47,43,30.19,29.75,22,4,28,0.00
2014-1-4,32,26,16,30,18,3,97,73,55,29.75,29.60,17,6,17,0.00
2014-1-5,30,27,22,30,25,18,98,92,82,29.81,29.63,15,3,15,0.00
2014-1-6,0,-1,-1,-6,-7,-7,75,75,75,29.84,29.81,9,4,9,0.00
2014-1-7,10,5,-1,4,-1,-7,75,75,75,30.04,29.81,10,4,11,0.00
2014-1-8,22,12,6,12,5,0,77,72,57,30.25,30.01,8,2,8,0.00
2014-1-9,23,16,12,19,9,6,85,73,56,30.28,29.98,6,0,6,0.00
2014-1-10,39,32,23,39,30,19,98,93,85,29.98,29.36,8,2,9,0.91
2014-1-11,40,36,32,40,36,30,98,97,89,29.45,29.16,13,4,13,0.16
2014-1-12,41,35,32,30,29,26,90,78,59,29.66,29.45,14,4,15,0.00
2014-1-13,43,38,30,36,33,27,92,79,69,29.48,29.31,12,4,12,0.00
2014-1-14,35,29,20,32,24,17,98,83,59,29.51,29.36,21,4,21,0.00
2014-1-15,30,24,19,29,17,11,96,74,55,29.78,29.36,17,6,17,0.00
2014-1-16,32,24,18,31,19,10,98,80,69,29.66,29.31,20,5,20,0.00
2014-1-17,32,24,19,32,18,13,98,78,67,29.69,29.34,14,4,14,0.00
2014-1-18,27,21,12,20,14,6,91,75,55,29.66,29.60,12,3,13,0.00
2014-1-19,34,27,12,30,21,6,89,80,73,29.63,29.28,22,6,26,0.00
2014-1-20,34,24,11,30,15,-1,84,68,57,29.87,29.31,13,4,13,0.00
2014-1-21,23,11,2,2,-4,-9,59,51,38,30.01,29.87,10,2,10,0.00
2014-1-22,16,11,7,4,-4,-8,61,50,45,29.93,29.63,15,4,15,0.00
2014-1-23,28,12,-1,8,-3,-12,63,49,34,30.25,29.75,11,2,11,0.00
2014-1-24,26,14,3,25,1,-14,96,57,44,30.19,29.22,25,10,25,0.00
2014-1-25,30,20,10,30,11,-3,98,70,43,29.57,29.07,20,6,20,0.00
2014-1-26,24,15,10,20,6,-3,89,66,55,29.54,29.13,13,3,15,0.00
2014-1-27,15,7,2,10,2,-3,80,80,78,30.07,29.31,13,4,18,0.00
2014-1-28,15,7,-1,9,-2,-6,80,69,53,30.07,29.90,14,4,17,0.00
2014-1-29,26,15,8,7,0,-5,63,51,42,29.90,29.81,17,6,20,0.00
2014-1-30,33,24,14,29,12,-2,94,62,43,29.81,29.45,19,7,20,0.00
2014-1-31,33,25,17,28,15,9,84,68,54,29.90,29.57,12,2,12,0.00
2014-2-1,31,24,19,24,19,12,89,82,75,29.90,29.63,6,1,6,0.00
2014-2-2,29,21,7,20,12,-4,88,69,51,30.07,29.81,8,1,9,0.00
2014-2-3,30,12,-2,16,0,-13,78,57,46,30.13,30.04,8,1,8,0.00
2014-2-4,28,16,4,15,5,-9,77,61,54,30.19,29.93,6,0,7,0.00
2014-2-5,34,21,14,17,14,1,86,74,36,30.13,29.81,15,5,15,0.00
2014-2-6,20,15,11,12,5,-1,79,64,54,30.13,30.01,13,4,13,0.00
2014-2-7,19,12,9,5,0,-3,63,56,49,30.07,30.01,17,6,17,0.00
2014-2-8,27,16,9,13,5,-3,77,63,51,30.04,29.93,9,3,10,0.00
2014-2-9,30,19,14,16,11,8,82,72,49,29.96,29.81,10,2,10,0.00
2014-2-10,23,14,10,11,5,-3,80,65,49,30.16,29.96,9,2,11,0.00
2014-2-11,35,13,1,11,-1,-11,63,52,34,30.25,30.16,8,1,9,0.00
2014-2-12,28,12,-5,8,-3,-17,61,51,41,30.16,29.81,6,1,7,0.00
2014-2-13,35,25,19,19,10,5,73,52,33,29.81,29.28,15,2,15,0.00
2014-2-14,31,25,16,25,16,6,86,69,52,29.66,29.25,11,4,13,0.00
2014-2-15,36,17,6,14,4,-4,71,58,39,29.84,29.63,9,1,10,0.00
2014-2-16,42,25,16,20,13,6,80,62,37,30.07,29.69,8,1,8,0.04
2014-2-17,22,17,11,16,9,3,87,72,48,30.10,29.45,11,2,11,0.00
2014-2-18,47,31,18,29,22,14,89,71,43,29.72,29.39,11,3,13,0.12
2014-2-19,48,36,27,34,28,22,97,75,51,29.78,29.36,11,2,12,0.00
2014-2-20,41,34,25,40,31,21,98,92,78,29.78,29.10,30,2,30,0.35
2014-2-21,37,31,27,35,24,11,98,74,49,29.51,29.13,28,12,33,0.00
2014-2-22,36,28,23,16,13,11,64,55,42,29.78,29.51,17,6,17,0.00
2014-2-23,32,23,16,12,10,7,74,57,41,29.90,29.78,15,5,15,0.00
2014-2-24,23,20,16,12,8,6,75,61,52,29.96,29.84,14,5,14,0.00
2014-2-25,24,17,11,15,8,2,80,65,50,29.96,29.81,15,4,15,0.00
2014-2-26,19,12,4,12,1,-5,81,61,47,29.87,29.36,17,6,23,0.00
2014-2-27,18,10,-6,12,-2,-23,83,60,38,29.98,29.31,23,5,23,0.00
2014-2-28,22,8,-10,5,-11,-27,52,41,35,30.04,29.81,10,2,14,0.00
2014-3-1,33,21,13,17,11,5,81,64,42,30.10,29.78,10,2,10,0.00
2014-3-2,34,14,0,15,2,-16,74,58,41,30.16,30.04,8,2,9,0.00
2014-3-3,32,8,-7,6,-11,-23,48,40,31,30.25,30.13,8,1,8,0.00
2014-3-4,25,17,9,9,0,-13,71,47,35,30.16,29.96,10,2,10,0.00
2014-3-5,36,20,13,12,6,-2,71,54,34,30.28,30.04,8,2,10,0.00
2014-3-6,44,21,6,15,5,-4,63,51,31,30.25,29.90,5,1,6,0.00
2014-3-7,52,31,10,28,15,0,80,54,28,29.90,29.66,9,3,9,0.00
2014-3-8,43,32,19,28,21,12,81,64,41,30.01,29.72,11,4,11,0.00
2014-3-9,38,26,10,31,16,4,94,67,40,29.98,29.60,13,5,13,0.00
2014-3-10,56,43,36,33,31,29,80,65,39,29.60,29.36,13,5,13,0.00
2014-3-11,50,40,34,36,32,29,90,73,51,29.54,29.39,13,1,14,0.00
2014-3-12,38,29,12,31,16,-3,91,63,31,29.84,29.48,17,6,17,0.00
2014-3-13,31,18,2,18,4,-12,69,53,44,29.90,29.66,13,3,13,0.00
2014-3-14,51,40,25,30,27,17,81,60,39,29.66,29.31,24,7,24,0.00
2014-3-15,44,35,26,30,19,4,78,54,33,30.07,29.51,13,5,13,0.00
2014-3-16,33,20,9,7,-1,-8,49,41,31,30.19,30.01,13,4,15,0.00
2014-3-17,42,23,9,13,4,-4,53,44,29,29.98,29.63,8,2,8,0.00
2014-3-18,54,35,23,29,20,9,69,55,37,29.75,29.57,8,2,9,0.00
2014-3-19,44,37,33,43,34,28,98,89,67,29.63,29.34,10,3,11,0.12
2014-3-20,40,34,25,32,23,16,96,64,44,29.84,29.63,17,4,17,0.00
2014-3-21,51,34,20,36,22,16,93,66,36,29.84,29.48,9,1,9,0.16
2014-3-22,39,34,23,36,27,10,98,79,55,30.04,29.48,10,4,11,0.00
2014-3-23,29,21,14,15,6,2,60,53,41,30.19,30.04,13,3,13,0.00
2014-3-24,36,23,12,15,8,1,76,54,34,30.13,29.81,14,3,14,0.00
2014-3-25,34,25,18,22,11,5,82,57,41,29.96,29.69,17,4,17,0.00
2014-3-26,40,25,11,16,8,2,81,52,30,30.10,29.84,12,2,12,0.00
2014-3-27,41,37,32,41,28,15,98,73,43,29.84,29.31,10,3,12,0.08
2014-3-28,48,38,32,48,36,28,98,92,79,29.98,29.22,19,3,22,0.39
2014-3-29,48,36,30,32,28,23,95,76,47,30.01,29.93,10,2,11,0.00
2014-3-30,58,37,21,28,23,18,93,62,29,30.01,29.87,8,1,8,0.00
2014-3-31,68,48,29,33,28,21,84,50,24,29.90,29.60,13,2,13,0.00
2014-4-1,56,42,34,45,29,21,81,62,39,29.81,29.45,23,6,23,0.04
2014-4-2,62,41,26,30,24,19,79,55,27,29.96,29.81,8,1,10,0.00
2014-4-3,43,38,33,31,24,20,81,57,41,29.93,29.60,9,3,10,0.08
2014-4-4,44,37,32,44,35,28,98,92,77,29.60,29.22,17,4,20,0.28
2014-4-5,53,38,31,30,23,17,90,59,27,29.96,29.60,13,4,15,0.00
2014-4-6,64,42,25,30,23,18,86,52,24,29.96,29.78,11,2,13,0.00
2014-4-7,61,46,30,31,26,22,84,51,26,29.78,29.36,10,1,10,0.00
2014-4-8,65,49,37,35,30,26,73,49,31,29.66,29.34,13,3,14,0.00
2014-4-9,62,47,30,30,25,18,68,44,25,29.78,29.63,15,3,15,0.00
2014-4-10,63,55,41,39,31,26,58,40,34,29.69,29.45,22,6,26,0.00
2014-4-11,70,49,32,37,26,18,88,48,17,29.81,29.69,14,2,14,0.00
2014-4-12,68,51,40,47,35,26,88,58,23,29.81,29.54,17,2,18,0.08
2014-4-13,65,53,50,60,50,45,98,88,64,29.60,29.31,14,2,18,0.51
2014-4-14,64,45,27,62,40,25,98,85,70,29.72,29.10,22,7,26,0.12
2014-4-15,38,29,24,25,15,9,94,59,32,30.01,29.69,14,5,16,0.00
2014-4-16,55,36,21,24,18,12,77,50,27,30.16,30.01,15,2,16,0.00
2014-4-17,66,49,35,35,28,22,66,47,27,30.04,29.96,15,4,15,0.00
2014-4-18,65,50,40,41,34,23,84,57,32,30.13,30.01,11,2,12,0.00
2014-4-19,71,49,34,34,27,22,75,46,22,30.22,30.04,8,2,10,0.00
2014-4-20,80,59,42,38,30,24,53,36,20,30.07,29.81,10,2,10,0.00
2014-4-21,77,62,51,56,42,32,98,52,28,29.84,29.54,11,3,12,0.16
2014-4-22,55,47,39,55,35,24,98,66,39,29.81,29.51,17,6,17,0.00
2014-4-23,66,44,32,30,26,23,79,51,24,29.93,29.81,11,4,13,0.00
2014-4-24,61,51,45,38,26,18,58,40,25,29.87,29.60,11,2,11,0.00
2014-4-25,64,50,42,47,38,19,93,65,30,29.60,29.45,13,2,13,0.16
2014-4-26,66,50,39,39,32,28,79,55,26,29.84,29.57,12,3,15,0.00
2014-4-27,63,49,40,34,30,26,67,49,30,29.93,29.78,10,4,11,0.00
2014-4-28,62,51,46,35,31,28,56,47,34,29.78,29.48,11,4,14,0.00
2014-4-29,68,54,45,60,49,33,98,83,48,29.51,29.28,18,2,21,0.43
2014-4-30,58,52,49,51,50,48,97,90,75,29.51,29.45,8,2,8,0.00
2014-5-3,61,56,47,50,40,33,98,58,37,29.63,29.42,15,4,15,0.00
2014-5-4,62,52,45,39,32,26,77,50,28,29.87,29.63,17,4,20,0.00
2014-5-5,64,51,44,39,33,29,64,51,33,29.87,29.75,8,1,8,0.00
2014-5-6,70,54,41,40,36,33,83,54,28,29.87,29.75,8,2,8,0.00
2014-5-7,62,53,45,54,46,35,97,77,53,29.81,29.66,14,3,15,0.47
2014-5-8,93,71,52,64,54,45,80,59,32,29.69,29.60,14,2,14,0.00
2014-5-9,78,68,54,65,57,42,98,70,44,29.60,29.45,23,7,25,0.59
2014-5-10,73,59,46,46,40,34,85,54,26,29.78,29.60,13,3,14,0.00
2014-5-11,88,66,46,57,47,40,88,55,28,29.81,29.69,12,2,12,0.00
2014-5-12,80,69,59,74,63,55,98,83,63,29.75,29.66,14,1,17,0.31
2014-5-13,73,66,54,69,61,50,94,85,71,29.90,29.57,17,4,17,0.00
2014-5-14,61,55,49,52,46,40,98,73,46,29.93,29.78,10,1,11,0.24
2014-5-15,49,43,36,49,42,33,98,93,78,29.84,29.57,15,5,15,0.28
2014-5-16,53,41,32,39,34,29,98,78,49,29.84,29.78,10,3,10,0.00
2014-5-17,63,48,36,42,32,25,94,60,25,29.93,29.81,12,3,15,0.00
2014-5-18,70,56,39,39,32,28,82,45,23,29.99,29.93,17,5,17,0.00
2014-5-19,77,59,44,48,39,32,85,52,22,30.04,29.84,11,2,13,0.08
2014-5-20,81,67,54,62,55,46,91,68,46,29.90,29.63,13,3,14,0.08
2014-5-21,85,72,62,69,60,47,98,70,28,29.69,29.60,9,2,11,0.04
2014-5-22,74,62,52,53,48,40,89,62,31,29.87,29.69,12,3,15,0.00
2014-5-23,74,60,50,48,45,41,84,60,37,29.96,29.87,11,3,13,0.00
2014-5-24,86,63,44,51,43,38,93,56,22,29.98,29.90,11,1,11,0.00
2014-5-25,86,68,50,54,47,41,93,54,22,29.93,29.81,10,2,11,0.00
2014-5-26,88,71,55,64,56,50,92,63,36,29.84,29.72,10,2,11,0.00
2014-5-27,84,74,67,68,65,59,94,74,55,29.75,29.66,10,2,13,0.00
2014-5-28,79,69,61,64,57,52,85,68,44,29.84,29.72,8,1,8,0.00
2014-6-2,78,74,70,62,62,60,70,64,58,29.63,29.60,10,4,10,0.00
2014-6-3,78,70,62,64,53,44,91,58,32,29.72,29.57,15,4,15,0.04
2014-6-4,74,64,58,62,56,52,94,78,56,29.78,29.60,8,1,8,0.12
2014-6-5,81,64,48,52,43,32,92,54,22,29.78,29.63,10,2,10,0.00
2014-6-6,88,67,51,50,44,37,83,50,19,29.96,29.69,8,1,8,0.00
2014-6-7,90,71,55,57,48,39,91,50,19,29.84,29.63,13,1,13,0.00
2014-6-8,83,71,61,59,54,43,90,58,34,29.81,29.63,8,2,9,0.08
2014-6-9,87,71,58,57,51,44,85,52,29,29.81,29.81,6,2,6,0.00
2014-6-10,79,69,61,60,53,46,79,58,41,29.81,29.81,6,1,6,0.00
2014-6-11,77,65,57,74,63,56,98,95,79,29.81,29.81,7,1,7,0.87
2014-6-12,79,65,57,66,61,56,98,87,60,29.81,29.81,11,3,14,0.00
2014-6-13,71,60,52,56,46,40,84,62,34,29.81,29.81,13,3,13,0.00
2014-6-14,84,64,45,52,45,39,96,58,21,29.81,29.81,7,1,7,0.00
2014-6-15,85,70,56,62,52,47,76,55,30,29.81,29.81,14,2,14,0.00
2014-6-16,90,78,67,66,60,51,83,58,28,29.81,29.81,8,2,11,0.00
2014-6-17,87,78,70,70,64,58,87,65,40,29.81,29.69,18,4,22,0.00
2014-6-18,71,70,67,67,65,62,98,84,74,29.81,29.69,15,1,21,1.81
2014-6-19,82,72,64,67,63,51,98,76,50,29.93,29.78,10,2,10,0.00
2014-6-20,71,65,62,64,57,48,92,78,56,29.90,29.75,7,1,7,0.00
2014-6-21,83,70,61,67,62,59,95,78,47,29.81,29.66,9,1,9,0.04
2014-6-22,88,74,63,71,66,61,98,78,43,29.75,29.66,8,1,8,0.04
2014-6-23,77,70,66,73,68,62,98,91,80,29.72,29.63,5,0,5,0.31
2014-6-24,84,74,69,74,69,67,98,87,60,29.69,29.63,8,1,8,0.08
2014-6-25,82,70,63,69,66,62,98,90,60,29.81,29.66,6,1,15,1.18
2014-6-26,80,70,62,71,66,61,98,87,63,29.90,29.81,5,1,5,0.00
2014-6-27,90,75,62,69,65,61,98,73,42,29.90,29.81,4,1,4,0.00
2014-6-28,90,78,68,73,68,63,88,71,47,29.90,29.78,2,2,2,0.00
2014-6-29,87,78,72,72,68,61,97,74,42,29.81,29.69,2,2,2,0.20
2014-6-30,92,79,68,73,70,64,97,76,46,29.75,29.48,13,4,13,0.24
2014-7-1,82,71,65,69,64,56,98,80,45,29.54,29.39,14,5,14,0.20
2014-7-2,70,67,62,62,59,55,89,77,66,29.78,29.54,11,4,11,0.00
2014-7-3,78,66,57,57,50,44,91,62,31,29.96,29.78,10,3,10,0.04
2014-7-4,86,68,53,56,47,39,94,54,20,30.10,29.96,10,2,10,0.00
2014-7-5,83,68,53,57,51,47,93,59,31,30.10,29.87,12,3,12,0.00
2014-7-6,84,72,62,73,63,56,98,75,56,29.87,29.48,12,3,13,0.39
2014-7-7,87,76,68,73,65,53,98,74,32,29.54,29.45,17,4,21,0.16
2014-7-8,77,71,66,67,63,59,98,78,58,29.60,29.39,13,3,15,0.31
2014-7-9,79,68,61,60,55,46,93,66,34,29.87,29.57,11,2,11,0.00
2014-7-10,85,69,54,57,52,47,93,59,27,30.01,29.87,6,1,8,0.00
2014-7-11,87,70,57,59,55,50,93,63,30,30.04,29.93,8,1,10,0.00
2014-7-12,77,71,62,72,65,59,96,83,63,29.96,29.66,10,2,10,0.04
2014-7-13,81,72,66,73,66,59,98,82,49,29.75,29.60,17,3,20,0.75
2014-7-14,82,70,60,65,60,52,97,74,40,29.69,29.60,9,2,10,0.00
2014-7-15,70,63,57,58,54,48,93,74,51,29.78,29.60,13,3,13,0.00
2014-7-16,76,64,56,52,50,47,84,63,39,29.87,29.75,12,3,12,0.00
2014-7-17,80,66,51,60,49,45,97,61,30,29.96,29.84,11,2,11,0.00
2014-7-18,85,68,52,60,52,46,95,61,27,30.04,29.93,9,1,9,0.00
2014-7-19,88,71,58,61,55,48,92,61,28,29.96,29.84,10,1,10,0.00
2014-7-20,87,71,60,62,57,51,92,65,30,29.93,29.87,8,1,8,0.00
2014-7-21,90,74,62,65,62,59,93,68,37,29.96,29.90,9,2,10,0.00
2014-7-22,92,78,66,70,65,62,94,68,37,29.93,29.75,19,4,20,0.20
2014-7-23,80,69,60,67,57,51,98,71,39,29.96,29.78,13,4,13,0.00
2014-7-24,84,67,54,54,49,42,87,56,29,30.01,29.90,10,2,10,0.00
2014-7-25,78,66,53,58,53,49,90,65,39,29.96,29.78,9,2,10,0.00
2014-7-26,83,71,62,64,61,57,91,72,46,29.81,29.66,7,2,8,0.00
2014-7-27,88,72,62,73,64,58,98,79,41,29.69,29.51,10,2,10,0.04
2014-7-28,73,65,57,62,53,43,92,69,36,29.93,29.66,13,4,13,0.00
2014-7-29,79,65,52,59,53,48,90,68,37,29.90,29.84,10,2,10,0.00
2014-7-30,80,66,55,60,53,42,96,67,30,29.90,29.87,10,2,10,0.00
2014-7-31,83,69,56,62,56,48,92,66,39,29.90,29.87,10,2,11,0.00
2014-8-1,88,73,61,64,58,52,93,63,30,29.98,29.90,9,2,11,0.00
2014-8-2,89,72,59,63,56,48,95,63,28,30.04,29.96,7,1,8,0.00
2014-8-3,91,72,57,63,57,51,93,63,29,30.04,29.96,9,2,12,0.00
2014-8-4,90,76,65,66,63,59,92,67,39,29.98,29.93,9,2,12,0.00
2014-8-5,81,73,68,71,66,63,90,78,59,29.96,29.90,8,1,8,0.16
2014-8-6,86,72,61,67,58,47,98,69,27,29.98,29.90,10,1,10,0.00
2014-8-7,88,72,58,62,55,49,95,62,28,30.04,29.93,6,0,6,0.00
2014-8-8,88,73,61,61,56,49,86,59,26,30.04,29.96,10,1,10,0.00
2014-8-9,86,72,59,60,55,52,83,58,32,30.04,29.98,8,1,13,0.00
2014-8-10,90,74,60,64,60,56,91,64,34,30.01,29.90,8,1,11,0.00
2014-8-11,81,74,69,69,66,63,88,76,62,29.90,29.66,7,1,9,0.00
2014-8-12,71,65,58,67,62,56,97,92,83,29.84,29.60,12,2,14,0.08
2014-8-13,83,66,51,62,53,46,98,69,31,29.93,29.84,10,2,10,0.00
2014-8-14,75,63,53,51,46,37,88,57,31,30.01,29.93,12,3,14,0.00
2014-8-15,79,62,47,56,46,40,94,61,26,29.98,29.87,15,2,15,0.00
2014-8-16,84,70,57,66,59,49,90,69,45,29.87,29.78,16,3,16,0.00
2014-8-17,81,72,65,67,65,62,97,80,57,29.93,29.84,5,0,6,0.04
2014-8-18,86,72,62,66,63,60,95,74,48,29.90,29.72,6,1,8,0.00
2014-8-19,74,70,66,74,68,64,98,95,81,29.72,29.60,12,3,12,1.14
2014-8-20,83,71,62,72,66,62,98,86,60,29.87,29.66,10,2,10,0.04
2014-8-21,82,72,64,72,68,64,98,88,69,29.90,29.84,9,1,9,0.00
2014-8-22,84,75,69,75,71,68,98,88,71,29.93,29.84,4,0,6,0.00
2014-8-23,87,75,68,70,66,63,95,75,45,29.96,29.87,6,1,6,0.00
2014-8-24,89,76,68,69,66,64,93,75,45,29.98,29.93,6,1,6,0.00
2014-8-25,83,74,70,75,69,67,92,86,68,29.96,29.93,8,1,9,0.04
2014-8-28,79,71,64,56,53,50,67,55,38,30.01,29.98,3,0,3,0.00
2014-8-29,77,70,64,70,62,51,88,76,63,30.01,29.84,8,1,8,0.00
2014-8-30,83,76,71,72,68,65,94,78,57,29.87,29.72,20,5,20,0.04
2014-8-31,88,75,67,71,66,60,98,76,42,29.87,29.78,10,2,11,0.00
2014-9-1,81,73,68,74,69,63,98,86,65,29.81,29.63,13,3,17,0.35
2014-9-2,85,73,64,68,61,52,98,71,33,29.87,29.72,11,2,11,0.00
2014-9-3,83,65,59,68,59,56,98,84,41,29.96,29.87,6,1,6,0.00
2014-9-5,71,68,65,69,67,64,98,97,90,29.93,29.81,5,1,8,0.00
2014-9-6,79,66,57,64,56,46,98,75,38,30.07,29.93,8,2,11,0.04
2014-9-7,85,65,52,63,54,49,98,71,29,30.13,30.04,6,1,8,0.00
2014-9-8,85,67,55,58,52,39,92,64,20,30.10,29.93,8,1,8,0.00
2014-9-9,86,71,58,61,57,53,93,66,36,29.98,29.84,10,1,10,0.00
2014-9-10,75,68,55,74,65,53,98,89,74,29.87,29.45,14,4,19,0.63
2014-9-11,60,54,50,53,49,47,98,84,67,30.16,29.66,14,4,14,0.00
2014-9-12,60,52,49,50,46,40,96,80,51,30.28,30.13,8,3,11,0.04
2014-9-13,62,52,45,50,46,41,98,83,53,30.28,30.10,11,2,11,0.12
2014-9-14,67,52,42,51,43,39,98,74,39,30.31,30.13,12,2,12,0.00
2014-9-15,63,53,45,57,50,42,98,89,71,30.16,30.04,8,1,9,0.00
2014-9-16,69,54,44,58,45,38,98,76,34,30.16,30.07,13,1,13,0.00
2014-9-17,71,54,40,54,43,37,98,71,34,30.10,30.01,9,2,10,0.00
2014-9-18,75,57,44,56,49,42,98,77,45,30.22,30.04,6,1,6,0.00
2014-9-19,77,60,48,57,50,46,98,73,38,30.28,30.01,9,2,11,0.00
2014-9-20,75,66,60,67,58,46,98,77,57,30.01,29.81,15,4,17,0.16
2014-9-21,65,58,47,64,55,40,98,90,73,30.19,29.69,13,5,17,0.31
2014-9-22,69,53,40,47,43,37,95,70,41,30.34,30.16,9,2,11,0.00
2014-9-23,80,59,44,58,48,42,98,72,35,30.43,30.34,8,1,9,0.00
2014-9-24,84,61,47,58,50,45,98,71,29,30.49,30.37,6,0,8,0.00
2014-9-25,87,64,50,59,52,47,96,70,29,30.43,30.34,4,0,6,0.00
2014-9-26,86,61,49,59,51,43,97,76,23,30.40,30.34,4,0,5,0.00
2014-9-28,82,68,59,55,54,51,79,62,34,30.19,30.19,4,0,4,0.00
2014-9-29,84,63,50,61,53,47,98,73,36,30.19,30.01,14,3,14,0.00
2014-9-30,60,53,48,49,47,44,92,79,63,30.16,30.07,8,3,11,0.00
2014-10-1,71,59,54,52,50,48,88,73,45,30.19,30.07,9,1,9,0.00
2014-10-2,73,63,54,66,58,48,97,85,73,30.10,29.84,8,1,8,0.16
2014-10-3,66,58,46,65,57,44,98,94,78,29.84,29.51,13,4,15,1.50
2014-10-4,48,44,42,44,40,36,98,87,72,29.81,29.72,11,4,11,0.31
2014-10-5,54,47,43,44,39,33,98,74,45,29.84,29.75,16,4,17,0.00
2014-10-6,62,51,46,52,46,41,96,83,55,29.78,29.66,10,2,13,0.00
2014-10-7,66,53,41,52,44,38,92,72,49,29.87,29.75,17,4,17,0.00
2014-10-8,64,53,42,49,37,29,92,57,28,30.10,29.87,17,3,20,0.00
2014-10-9,43,42,38,38,36,33,83,82,76,30.16,30.10,0,0,0,0.00
2014-10-17,55,51,47,52,49,46,98,94,84,29.90,29.72,11,4,13,0.00
2014-10-18,47,45,35,46,40,30,97,85,69,30.31,29.90,16,4,16,0.04
2014-10-19,53,41,30,42,34,27,98,78,52,30.34,30.04,13,2,15,0.00
2014-10-22,64,50,36,41,33,29,76,53,34,30.46,30.04,5,0,8,0.00
2014-10-23,67,45,30,48,35,26,98,73,37,30.43,30.22,10,1,12,0.00
2014-10-24,65,54,44,51,45,39,85,74,54,30.22,30.07,10,1,10,0.00
2014-10-25,69,58,44,56,42,30,97,63,25,30.07,29.96,14,4,16,0.00
2014-10-26,65,51,37,38,31,28,80,49,28,30.13,30.01,10,2,11,0.00
2014-10-27,80,59,37,56,44,30,85,59,40,30.10,29.75,17,2,17,0.00
2014-10-28,70,59,50,60,46,32,98,65,37,30.04,29.78,20,6,24,0.24
2014-10-29,50,46,40,42,37,32,87,73,54,30.25,30.01,11,3,15,0.04
2014-10-30,50,45,40,41,38,35,94,77,58,30.28,30.13,10,1,14,0.00
2014-10-31,46,38,32,41,33,18,95,81,55,30.46,30.07,23,6,25,0.08
2014-11-1,51,34,25,21,18,16,72,53,28,30.58,30.43,13,4,15,0.00
2014-11-2,58,37,22,35,23,16,87,59,28,30.58,30.37,11,2,11,0.00
2014-11-3,61,51,44,39,29,20,64,42,30,30.37,30.10,15,5,15,0.00
2014-11-4,61,52,44,54,43,29,98,76,30,30.16,29.98,16,7,23,0.12
2014-11-5,56,47,40,41,34,29,85,62,38,30.28,30.07,16,3,20,0.00
2014-11-6,49,43,37,48,40,28,96,87,71,30.31,29.87,17,3,19,0.04
2014-11-7,41,38,33,34,32,28,90,79,67,30.31,30.04,8,2,8,0.00
2014-11-8,44,40,34,41,33,25,98,78,58,30.07,29.84,14,3,14,0.16
2014-11-9,47,40,31,36,31,26,87,70,49,30.07,29.93,20,4,20,0.00
2014-11-10,59,47,40,40,36,33,90,68,44,30.04,29.81,10,2,12,0.00
2014-11-11,53,44,34,48,38,27,98,81,62,30.16,29.78,15,3,15,0.24
2014-11-12,34,32,30,27,21,17,75,65,55,30.40,30.16,11,4,14,0.00
2014-11-13,33,29,25,28,23,18,90,80,61,30.40,30.34,9,2,10,0.04
2014-11-14,34,29,24,28,23,19,95,79,61,30.52,30.37,8,2,8,0.00
2014-11-15,31,28,26,23,19,17,86,68,61,30.55,30.37,10,4,10,0.00
2014-11-16,32,29,26,29,26,23,91,88,85,30.37,30.04,11,4,12,0.00
2014-11-17,31,23,17,27,16,9,87,75,63,30.04,29.90,12,5,16,0.00
2014-11-18,24,20,17,16,14,11,84,77,68,30.28,29.96,11,4,11,0.00
2014-11-19,28,22,17,24,15,8,87,71,56,30.25,29.90,13,4,20,0.00
2014-11-20,27,23,18,17,13,8,77,66,49,30.43,23.25,17,5,17,0.00
2014-11-21,39,24,15,18,11,7,77,58,39,30.66,20.09,10,2,11,0.00
2014-11-22,44,36,24,44,32,11,98,86,54,30.46,20.09,10,4,10,0.16
2014-11-23,51,47,39,50,46,38,98,98,95,18.38,18.38,10,1,11,0.79
2014-11-24,50,42,30,50,42,29,98,97,93,18.38,18.38,28,5,28,0.71
2014-11-25,33,30,29,30,26,23,95,84,73,18.38,18.38,0,0,0,0.00
2014-11-26,32,29,28,26,24,21,87,80,69,18.38,18.38,0,0,0,0.00
2014-11-27,34,27,20,30,21,10,94,78,64,18.38,18.38,13,2,15,0.00
2014-11-28,29,24,20,22,16,11,77,70,57,18.38,18.38,10,2,13,0.00
2014-11-29,51,39,29,48,32,22,92,77,60,18.38,18.38,18,4,18,0.04
2014-11-30,53,46,33,51,44,28,97,93,82,18.38,18.38,16,5,20,0.00
2014-12-1,33,23,16,27,10,3,80,56,44,18.38,18.38,10,4,13,0.00
2014-12-2,42,26,14,30,15,3,92,64,42,18.38,18.38,9,3,10,0.00
2014-12-3,39,33,28,33,22,13,96,64,44,18.38,18.38,17,5,17,0.00
2014-12-4,36,28,22,15,12,10,68,52,40,18.38,18.38,6,1,6,0.00
2014-12-5,40,35,30,28,24,14,75,66,53,18.38,18.38,4,0,5,0.00
2014-12-6,48,36,26,31,24,13,88,62,38,18.38,18.38,13,4,13,0.00
2014-12-7,38,29,20,22,16,12,74,58,43,18.38,18.38,6,1,6,0.00
2014-12-8,39,34,30,34,28,21,98,78,63,18.38,18.38,8,2,8,0.12
2014-12-9,39,35,32,38,33,26,98,92,79,18.38,18.38,9,3,10,0.00
2014-12-10,42,31,24,26,22,17,82,70,48,18.38,18.38,11,3,11,0.00
2014-12-11,42,30,22,31,23,18,93,78,51,18.38,18.38,13,3,13,0.00
2014-12-12,36,34,28,36,32,25,98,94,88,18.38,18.38,8,3,8,0.00
2014-12-13,43,39,36,43,38,34,98,96,92,18.38,18.38,10,4,11,0.00
2014-12-14,48,46,43,48,46,43,98,98,98,18.38,18.38,8,1,8,0.00
2014-12-15,52,48,45,51,45,41,98,92,76,18.38,18.38,6,1,6,0.00
2014-12-16,46,42,34,45,42,33,98,98,93,18.38,18.38,10,2,11,0.12
2014-12-17,34,30,27,33,24,19,98,78,70,18.38,18.38,10,6,11,0.00
2014-12-18,33,31,29,32,28,23,94,86,77,18.38,18.38,6,2,7,0.00
2014-12-19,44,29,20,24,20,14,88,69,43,18.38,18.38,4,1,4,0.00
2014-12-20,33,22,18,28,18,13,91,84,73,18.38,18.38,6,0,6,0.00
2014-12-22,37,34,28,35,30,22,98,83,66,0.00,0.00,4,2,4,0.20
2014-12-23,50,41,36,49,39,34,98,94,75,0.00,0.00,10,2,13,0.08
2014-12-24,40,38,35,40,37,35,98,98,98,0.00,0.00,5,1,5,0.55
2014-12-25,37,36,32,36,33,30,98,90,82,0.00,0.00,10,5,10,0.00
2014-12-26,50,40,35,41,35,32,95,83,60,0.00,0.00,11,3,11,0.00
2014-12-27,49,43,36,48,40,29,98,88,75,0.00,0.00,13,6,13,0.00
2014-12-28,39,32,30,34,24,19,97,73,51,0.00,0.00,8,2,8,0.04
2014-12-29,38,28,20,19,13,7,66,54,39,0.00,0.00,7,4,7,0.00
2014-12-30,23,20,17,10,6,2,58,53,48,0.00,0.00,2,2,2,0.00
2014-12-31,23,18,14,9,7,4,74,60,52,0.00,0.00,9,4,9,0.00
2015-1-1,32,27,23,25,17,9,87,66,53,0.00,0.00,9,9,9,0.00
2015-1-2,36,28,23,20,17,12,78,63,50,0.00,0.00,9,9,9,0.00